<?xml version="1.0"?>
<gpx xmlns="http://www.topografix.com/GPX/1/1" xmlns:xsi="http://www.w3.org/2001/XMLSchema-instance" version="1.1" creator="GPX RubyGem 1.0.0 -- http://dougfales.github.io/gpx/" xsi:schemaLocation="http://www.topografix.com/GPX/1/1 http://www.topografix.com/GPX/1/1/gpx.xsd">
  <metadata>
    <name/>
    <time>2026-05-10T22:19:52+00:00</time>
    <bound minlat="90.0" minlon="180.0" maxlat="-90.0" maxlon="-180.0"/>
  </metadata>
  <trk>
    <name/>
    <trkseg>
      <trkpt lat="59.504794" lon="17.886533">
        <time>1970-01-01T00:00:00+00:00</time>
        <ele>9.0</ele>
      </trkpt>
      <trkpt lat="59.5049" lon="17.88678">
        <time>1970-01-01T00:00:00+00:00</time>
        <ele>9.0</ele>
      </trkpt>
      <trkpt lat="59.504589" lon="17.887254">
        <time>1970-01-01T00:00:00+00:00</time>
        <ele>6.0</ele>
      </trkpt>
      <trkpt lat="59.50449" lon="17.887481">
        <time>1970-01-01T00:00:00+00:00</time>
        <ele>6.0</ele>
      </trkpt>
      <trkpt lat="59.504356" lon="17.88745">
        <time>1970-01-01T00:00:00+00:00</time>
        <ele>6.0</ele>
      </trkpt>
      <trkpt lat="59.5042" lon="17.887474">
        <time>1970-01-01T00:00:00+00:00</time>
        <ele>5.0</ele>
      </trkpt>
      <trkpt lat="59.504071" lon="17.887569">
        <time>1970-01-01T00:00:00+00:00</time>
        <ele>5.0</ele>
      </trkpt>
      <trkpt lat="59.503964" lon="17.887749">
        <time>1970-01-01T00:00:00+00:00</time>
        <ele>5.0</ele>
      </trkpt>
      <trkpt lat="59.503661" lon="17.888502">
        <time>1970-01-01T00:00:00+00:00</time>
        <ele>5.0</ele>
      </trkpt>
      <trkpt lat="59.503564" lon="17.888386">
        <time>1970-01-01T00:00:00+00:00</time>
        <ele>6.0</ele>
      </trkpt>
      <trkpt lat="59.503481" lon="17.888369">
        <time>1970-01-01T00:00:00+00:00</time>
        <ele>6.0</ele>
      </trkpt>
      <trkpt lat="59.503418" lon="17.88841">
        <time>1970-01-01T00:00:00+00:00</time>
        <ele>6.0</ele>
      </trkpt>
      <trkpt lat="59.503438" lon="17.888216">
        <time>1970-01-01T00:00:00+00:00</time>
        <ele>6.0</ele>
      </trkpt>
      <trkpt lat="59.503456" lon="17.88805">
        <time>1970-01-01T00:00:00+00:00</time>
        <ele>6.0</ele>
      </trkpt>
      <trkpt lat="59.503491" lon="17.887599">
        <time>1970-01-01T00:00:00+00:00</time>
        <ele>6.0</ele>
      </trkpt>
      <trkpt lat="59.5035" lon="17.887477">
        <time>1970-01-01T00:00:00+00:00</time>
        <ele>6.0</ele>
      </trkpt>
      <trkpt lat="59.503428" lon="17.887388">
        <time>1970-01-01T00:00:00+00:00</time>
        <ele>6.0</ele>
      </trkpt>
      <trkpt lat="59.503231" lon="17.887273">
        <time>1970-01-01T00:00:00+00:00</time>
        <ele>6.0</ele>
      </trkpt>
      <trkpt lat="59.50319" lon="17.887141">
        <time>1970-01-01T00:00:00+00:00</time>
        <ele>6.0</ele>
      </trkpt>
      <trkpt lat="59.503145" lon="17.886626">
        <time>1970-01-01T00:00:00+00:00</time>
        <ele>4.0</ele>
      </trkpt>
      <trkpt lat="59.502345" lon="17.885318">
        <time>1970-01-01T00:00:00+00:00</time>
        <ele>7.0</ele>
      </trkpt>
      <trkpt lat="59.502295" lon="17.88526">
        <time>1970-01-01T00:00:00+00:00</time>
        <ele>8.0</ele>
      </trkpt>
      <trkpt lat="59.502003" lon="17.885364">
        <time>1970-01-01T00:00:00+00:00</time>
        <ele>7.0</ele>
      </trkpt>
      <trkpt lat="59.501946" lon="17.885352">
        <time>1970-01-01T00:00:00+00:00</time>
        <ele>6.0</ele>
      </trkpt>
      <trkpt lat="59.501787" lon="17.885143">
        <time>1970-01-01T00:00:00+00:00</time>
        <ele>5.0</ele>
      </trkpt>
      <trkpt lat="59.501776" lon="17.885069">
        <time>1970-01-01T00:00:00+00:00</time>
        <ele>5.0</ele>
      </trkpt>
      <trkpt lat="59.501869" lon="17.884605">
        <time>1970-01-01T00:00:00+00:00</time>
        <ele>5.0</ele>
      </trkpt>
      <trkpt lat="59.501869" lon="17.884525">
        <time>1970-01-01T00:00:00+00:00</time>
        <ele>5.0</ele>
      </trkpt>
      <trkpt lat="59.501844" lon="17.884463">
        <time>1970-01-01T00:00:00+00:00</time>
        <ele>4.0</ele>
      </trkpt>
      <trkpt lat="59.500846" lon="17.883917">
        <time>1970-01-01T00:00:00+00:00</time>
        <ele>5.0</ele>
      </trkpt>
      <trkpt lat="59.500794" lon="17.883911">
        <time>1970-01-01T00:00:00+00:00</time>
        <ele>5.0</ele>
      </trkpt>
      <trkpt lat="59.500723" lon="17.883998">
        <time>1970-01-01T00:00:00+00:00</time>
        <ele>6.0</ele>
      </trkpt>
      <trkpt lat="59.500705" lon="17.884051">
        <time>1970-01-01T00:00:00+00:00</time>
        <ele>6.0</ele>
      </trkpt>
      <trkpt lat="59.500691" lon="17.884276">
        <time>1970-01-01T00:00:00+00:00</time>
        <ele>5.0</ele>
      </trkpt>
      <trkpt lat="59.500654" lon="17.884343">
        <time>1970-01-01T00:00:00+00:00</time>
        <ele>5.0</ele>
      </trkpt>
      <trkpt lat="59.500598" lon="17.884342">
        <time>1970-01-01T00:00:00+00:00</time>
        <ele>5.0</ele>
      </trkpt>
      <trkpt lat="59.500434" lon="17.884027">
        <time>1970-01-01T00:00:00+00:00</time>
        <ele>5.0</ele>
      </trkpt>
      <trkpt lat="59.500391" lon="17.884034">
        <time>1970-01-01T00:00:00+00:00</time>
        <ele>5.0</ele>
      </trkpt>
      <trkpt lat="59.499635" lon="17.884982">
        <time>1970-01-01T00:00:00+00:00</time>
        <ele>9.0</ele>
      </trkpt>
      <trkpt lat="59.499612" lon="17.885053">
        <time>1970-01-01T00:00:00+00:00</time>
        <ele>9.0</ele>
      </trkpt>
      <trkpt lat="59.499634" lon="17.885409">
        <time>1970-01-01T00:00:00+00:00</time>
        <ele>10.0</ele>
      </trkpt>
      <trkpt lat="59.499589" lon="17.885458">
        <time>1970-01-01T00:00:00+00:00</time>
        <ele>11.0</ele>
      </trkpt>
      <trkpt lat="59.499455" lon="17.885529">
        <time>1970-01-01T00:00:00+00:00</time>
        <ele>14.0</ele>
      </trkpt>
      <trkpt lat="59.499419" lon="17.885482">
        <time>1970-01-01T00:00:00+00:00</time>
        <ele>14.0</ele>
      </trkpt>
      <trkpt lat="59.499385" lon="17.88538">
        <time>1970-01-01T00:00:00+00:00</time>
        <ele>13.0</ele>
      </trkpt>
      <trkpt lat="59.499326" lon="17.885331">
        <time>1970-01-01T00:00:00+00:00</time>
        <ele>13.0</ele>
      </trkpt>
      <trkpt lat="59.499151" lon="17.885469">
        <time>1970-01-01T00:00:00+00:00</time>
        <ele>13.0</ele>
      </trkpt>
      <trkpt lat="59.499004" lon="17.885645">
        <time>1970-01-01T00:00:00+00:00</time>
        <ele>12.0</ele>
      </trkpt>
      <trkpt lat="59.498995" lon="17.885919">
        <time>1970-01-01T00:00:00+00:00</time>
        <ele>13.0</ele>
      </trkpt>
      <trkpt lat="59.498952" lon="17.885979">
        <time>1970-01-01T00:00:00+00:00</time>
        <ele>12.0</ele>
      </trkpt>
      <trkpt lat="59.498782" lon="17.886113">
        <time>1970-01-01T00:00:00+00:00</time>
        <ele>9.0</ele>
      </trkpt>
      <trkpt lat="59.498592" lon="17.886367">
        <time>1970-01-01T00:00:00+00:00</time>
        <ele>7.0</ele>
      </trkpt>
      <trkpt lat="59.498509" lon="17.886034">
        <time>1970-01-01T00:00:00+00:00</time>
        <ele>5.0</ele>
      </trkpt>
      <trkpt lat="59.498434" lon="17.885903">
        <time>1970-01-01T00:00:00+00:00</time>
        <ele>5.0</ele>
      </trkpt>
      <trkpt lat="59.498327" lon="17.885792">
        <time>1970-01-01T00:00:00+00:00</time>
        <ele>4.0</ele>
      </trkpt>
      <trkpt lat="59.498264" lon="17.885759">
        <time>1970-01-01T00:00:00+00:00</time>
        <ele>5.0</ele>
      </trkpt>
      <trkpt lat="59.49819" lon="17.885843">
        <time>1970-01-01T00:00:00+00:00</time>
        <ele>5.0</ele>
      </trkpt>
      <trkpt lat="59.498105" lon="17.885797">
        <time>1970-01-01T00:00:00+00:00</time>
        <ele>9.0</ele>
      </trkpt>
      <trkpt lat="59.497998" lon="17.885882">
        <time>1970-01-01T00:00:00+00:00</time>
        <ele>14.0</ele>
      </trkpt>
      <trkpt lat="59.497899" lon="17.88602">
        <time>1970-01-01T00:00:00+00:00</time>
        <ele>19.0</ele>
      </trkpt>
      <trkpt lat="59.497807" lon="17.886145">
        <time>1970-01-01T00:00:00+00:00</time>
        <ele>22.0</ele>
      </trkpt>
      <trkpt lat="59.497771" lon="17.88633">
        <time>1970-01-01T00:00:00+00:00</time>
        <ele>24.0</ele>
      </trkpt>
      <trkpt lat="59.497768" lon="17.886523">
        <time>1970-01-01T00:00:00+00:00</time>
        <ele>24.0</ele>
      </trkpt>
      <trkpt lat="59.497648" lon="17.886518">
        <time>1970-01-01T00:00:00+00:00</time>
        <ele>28.0</ele>
      </trkpt>
      <trkpt lat="59.497406" lon="17.886588">
        <time>1970-01-01T00:00:00+00:00</time>
        <ele>36.0</ele>
      </trkpt>
      <trkpt lat="59.497305" lon="17.886657">
        <time>1970-01-01T00:00:00+00:00</time>
        <ele>37.0</ele>
      </trkpt>
      <trkpt lat="59.497199" lon="17.886588">
        <time>1970-01-01T00:00:00+00:00</time>
        <ele>39.0</ele>
      </trkpt>
      <trkpt lat="59.496979" lon="17.886496">
        <time>1970-01-01T00:00:00+00:00</time>
        <ele>39.0</ele>
      </trkpt>
      <trkpt lat="59.496709" lon="17.886507">
        <time>1970-01-01T00:00:00+00:00</time>
        <ele>34.0</ele>
      </trkpt>
      <trkpt lat="59.496526" lon="17.886373">
        <time>1970-01-01T00:00:00+00:00</time>
        <ele>32.0</ele>
      </trkpt>
      <trkpt lat="59.496262" lon="17.886566">
        <time>1970-01-01T00:00:00+00:00</time>
        <ele>31.0</ele>
      </trkpt>
      <trkpt lat="59.496023" lon="17.88685">
        <time>1970-01-01T00:00:00+00:00</time>
        <ele>31.0</ele>
      </trkpt>
      <trkpt lat="59.495794" lon="17.88706">
        <time>1970-01-01T00:00:00+00:00</time>
        <ele>30.0</ele>
      </trkpt>
      <trkpt lat="59.495666" lon="17.887274">
        <time>1970-01-01T00:00:00+00:00</time>
        <ele>31.0</ele>
      </trkpt>
      <trkpt lat="59.495575" lon="17.887685">
        <time>1970-01-01T00:00:00+00:00</time>
        <ele>32.0</ele>
      </trkpt>
      <trkpt lat="59.495466" lon="17.887509">
        <time>1970-01-01T00:00:00+00:00</time>
        <ele>25.0</ele>
      </trkpt>
      <trkpt lat="59.495466" lon="17.887467">
        <time>1970-01-01T00:00:00+00:00</time>
        <ele>24.0</ele>
      </trkpt>
      <trkpt lat="59.495466" lon="17.887467">
        <time>1970-01-01T00:00:00+00:00</time>
        <ele>24.0</ele>
      </trkpt>
      <trkpt lat="59.495466" lon="17.887509">
        <time>1970-01-01T00:00:00+00:00</time>
        <ele>25.0</ele>
      </trkpt>
      <trkpt lat="59.495575" lon="17.887685">
        <time>1970-01-01T00:00:00+00:00</time>
        <ele>32.0</ele>
      </trkpt>
      <trkpt lat="59.495666" lon="17.887274">
        <time>1970-01-01T00:00:00+00:00</time>
        <ele>31.0</ele>
      </trkpt>
      <trkpt lat="59.495794" lon="17.88706">
        <time>1970-01-01T00:00:00+00:00</time>
        <ele>30.0</ele>
      </trkpt>
      <trkpt lat="59.496023" lon="17.88685">
        <time>1970-01-01T00:00:00+00:00</time>
        <ele>31.0</ele>
      </trkpt>
      <trkpt lat="59.496262" lon="17.886566">
        <time>1970-01-01T00:00:00+00:00</time>
        <ele>31.0</ele>
      </trkpt>
      <trkpt lat="59.496526" lon="17.886373">
        <time>1970-01-01T00:00:00+00:00</time>
        <ele>32.0</ele>
      </trkpt>
      <trkpt lat="59.496709" lon="17.886507">
        <time>1970-01-01T00:00:00+00:00</time>
        <ele>34.0</ele>
      </trkpt>
      <trkpt lat="59.496979" lon="17.886496">
        <time>1970-01-01T00:00:00+00:00</time>
        <ele>39.0</ele>
      </trkpt>
      <trkpt lat="59.497199" lon="17.886588">
        <time>1970-01-01T00:00:00+00:00</time>
        <ele>39.0</ele>
      </trkpt>
      <trkpt lat="59.497305" lon="17.886657">
        <time>1970-01-01T00:00:00+00:00</time>
        <ele>37.0</ele>
      </trkpt>
      <trkpt lat="59.497406" lon="17.886588">
        <time>1970-01-01T00:00:00+00:00</time>
        <ele>36.0</ele>
      </trkpt>
      <trkpt lat="59.497648" lon="17.886518">
        <time>1970-01-01T00:00:00+00:00</time>
        <ele>28.0</ele>
      </trkpt>
      <trkpt lat="59.497768" lon="17.886523">
        <time>1970-01-01T00:00:00+00:00</time>
        <ele>24.0</ele>
      </trkpt>
      <trkpt lat="59.497771" lon="17.88633">
        <time>1970-01-01T00:00:00+00:00</time>
        <ele>24.0</ele>
      </trkpt>
      <trkpt lat="59.497807" lon="17.886145">
        <time>1970-01-01T00:00:00+00:00</time>
        <ele>22.0</ele>
      </trkpt>
      <trkpt lat="59.497899" lon="17.88602">
        <time>1970-01-01T00:00:00+00:00</time>
        <ele>19.0</ele>
      </trkpt>
      <trkpt lat="59.497998" lon="17.885882">
        <time>1970-01-01T00:00:00+00:00</time>
        <ele>14.0</ele>
      </trkpt>
      <trkpt lat="59.498105" lon="17.885797">
        <time>1970-01-01T00:00:00+00:00</time>
        <ele>9.0</ele>
      </trkpt>
      <trkpt lat="59.49819" lon="17.885843">
        <time>1970-01-01T00:00:00+00:00</time>
        <ele>5.0</ele>
      </trkpt>
      <trkpt lat="59.498264" lon="17.885759">
        <time>1970-01-01T00:00:00+00:00</time>
        <ele>5.0</ele>
      </trkpt>
      <trkpt lat="59.498327" lon="17.885792">
        <time>1970-01-01T00:00:00+00:00</time>
        <ele>4.0</ele>
      </trkpt>
      <trkpt lat="59.498434" lon="17.885903">
        <time>1970-01-01T00:00:00+00:00</time>
        <ele>5.0</ele>
      </trkpt>
      <trkpt lat="59.498509" lon="17.886034">
        <time>1970-01-01T00:00:00+00:00</time>
        <ele>5.0</ele>
      </trkpt>
      <trkpt lat="59.498592" lon="17.886367">
        <time>1970-01-01T00:00:00+00:00</time>
        <ele>7.0</ele>
      </trkpt>
      <trkpt lat="59.498782" lon="17.886113">
        <time>1970-01-01T00:00:00+00:00</time>
        <ele>9.0</ele>
      </trkpt>
      <trkpt lat="59.498952" lon="17.885979">
        <time>1970-01-01T00:00:00+00:00</time>
        <ele>12.0</ele>
      </trkpt>
      <trkpt lat="59.498995" lon="17.885919">
        <time>1970-01-01T00:00:00+00:00</time>
        <ele>13.0</ele>
      </trkpt>
      <trkpt lat="59.499004" lon="17.885645">
        <time>1970-01-01T00:00:00+00:00</time>
        <ele>12.0</ele>
      </trkpt>
      <trkpt lat="59.499151" lon="17.885469">
        <time>1970-01-01T00:00:00+00:00</time>
        <ele>13.0</ele>
      </trkpt>
      <trkpt lat="59.499326" lon="17.885331">
        <time>1970-01-01T00:00:00+00:00</time>
        <ele>13.0</ele>
      </trkpt>
      <trkpt lat="59.499385" lon="17.88538">
        <time>1970-01-01T00:00:00+00:00</time>
        <ele>13.0</ele>
      </trkpt>
      <trkpt lat="59.499419" lon="17.885482">
        <time>1970-01-01T00:00:00+00:00</time>
        <ele>14.0</ele>
      </trkpt>
      <trkpt lat="59.499455" lon="17.885529">
        <time>1970-01-01T00:00:00+00:00</time>
        <ele>14.0</ele>
      </trkpt>
      <trkpt lat="59.499589" lon="17.885458">
        <time>1970-01-01T00:00:00+00:00</time>
        <ele>11.0</ele>
      </trkpt>
      <trkpt lat="59.499634" lon="17.885409">
        <time>1970-01-01T00:00:00+00:00</time>
        <ele>10.0</ele>
      </trkpt>
      <trkpt lat="59.499612" lon="17.885053">
        <time>1970-01-01T00:00:00+00:00</time>
        <ele>9.0</ele>
      </trkpt>
      <trkpt lat="59.499635" lon="17.884982">
        <time>1970-01-01T00:00:00+00:00</time>
        <ele>9.0</ele>
      </trkpt>
      <trkpt lat="59.500391" lon="17.884034">
        <time>1970-01-01T00:00:00+00:00</time>
        <ele>5.0</ele>
      </trkpt>
      <trkpt lat="59.500434" lon="17.884027">
        <time>1970-01-01T00:00:00+00:00</time>
        <ele>5.0</ele>
      </trkpt>
      <trkpt lat="59.500598" lon="17.884342">
        <time>1970-01-01T00:00:00+00:00</time>
        <ele>5.0</ele>
      </trkpt>
      <trkpt lat="59.500654" lon="17.884343">
        <time>1970-01-01T00:00:00+00:00</time>
        <ele>5.0</ele>
      </trkpt>
      <trkpt lat="59.500691" lon="17.884276">
        <time>1970-01-01T00:00:00+00:00</time>
        <ele>5.0</ele>
      </trkpt>
      <trkpt lat="59.500705" lon="17.884051">
        <time>1970-01-01T00:00:00+00:00</time>
        <ele>6.0</ele>
      </trkpt>
      <trkpt lat="59.500723" lon="17.883998">
        <time>1970-01-01T00:00:00+00:00</time>
        <ele>6.0</ele>
      </trkpt>
      <trkpt lat="59.500794" lon="17.883911">
        <time>1970-01-01T00:00:00+00:00</time>
        <ele>5.0</ele>
      </trkpt>
      <trkpt lat="59.500846" lon="17.883917">
        <time>1970-01-01T00:00:00+00:00</time>
        <ele>5.0</ele>
      </trkpt>
      <trkpt lat="59.501844" lon="17.884463">
        <time>1970-01-01T00:00:00+00:00</time>
        <ele>4.0</ele>
      </trkpt>
      <trkpt lat="59.501869" lon="17.884525">
        <time>1970-01-01T00:00:00+00:00</time>
        <ele>5.0</ele>
      </trkpt>
      <trkpt lat="59.501869" lon="17.884605">
        <time>1970-01-01T00:00:00+00:00</time>
        <ele>5.0</ele>
      </trkpt>
      <trkpt lat="59.501776" lon="17.885069">
        <time>1970-01-01T00:00:00+00:00</time>
        <ele>5.0</ele>
      </trkpt>
      <trkpt lat="59.501787" lon="17.885143">
        <time>1970-01-01T00:00:00+00:00</time>
        <ele>5.0</ele>
      </trkpt>
      <trkpt lat="59.501946" lon="17.885352">
        <time>1970-01-01T00:00:00+00:00</time>
        <ele>6.0</ele>
      </trkpt>
      <trkpt lat="59.502003" lon="17.885364">
        <time>1970-01-01T00:00:00+00:00</time>
        <ele>7.0</ele>
      </trkpt>
      <trkpt lat="59.502295" lon="17.88526">
        <time>1970-01-01T00:00:00+00:00</time>
        <ele>8.0</ele>
      </trkpt>
      <trkpt lat="59.502345" lon="17.885318">
        <time>1970-01-01T00:00:00+00:00</time>
        <ele>7.0</ele>
      </trkpt>
      <trkpt lat="59.503145" lon="17.886626">
        <time>1970-01-01T00:00:00+00:00</time>
        <ele>4.0</ele>
      </trkpt>
      <trkpt lat="59.50319" lon="17.887141">
        <time>1970-01-01T00:00:00+00:00</time>
        <ele>6.0</ele>
      </trkpt>
      <trkpt lat="59.503231" lon="17.887273">
        <time>1970-01-01T00:00:00+00:00</time>
        <ele>6.0</ele>
      </trkpt>
      <trkpt lat="59.503428" lon="17.887388">
        <time>1970-01-01T00:00:00+00:00</time>
        <ele>6.0</ele>
      </trkpt>
      <trkpt lat="59.5035" lon="17.887477">
        <time>1970-01-01T00:00:00+00:00</time>
        <ele>6.0</ele>
      </trkpt>
      <trkpt lat="59.503533" lon="17.887602">
        <time>1970-01-01T00:00:00+00:00</time>
        <ele>5.0</ele>
      </trkpt>
      <trkpt lat="59.503589" lon="17.887888">
        <time>1970-01-01T00:00:00+00:00</time>
        <ele>5.0</ele>
      </trkpt>
      <trkpt lat="59.503588" lon="17.88799">
        <time>1970-01-01T00:00:00+00:00</time>
        <ele>5.0</ele>
      </trkpt>
      <trkpt lat="59.503559" lon="17.888086">
        <time>1970-01-01T00:00:00+00:00</time>
        <ele>5.0</ele>
      </trkpt>
      <trkpt lat="59.503484" lon="17.888181">
        <time>1970-01-01T00:00:00+00:00</time>
        <ele>6.0</ele>
      </trkpt>
      <trkpt lat="59.503438" lon="17.888216">
        <time>1970-01-01T00:00:00+00:00</time>
        <ele>6.0</ele>
      </trkpt>
      <trkpt lat="59.503418" lon="17.88841">
        <time>1970-01-01T00:00:00+00:00</time>
        <ele>6.0</ele>
      </trkpt>
      <trkpt lat="59.503481" lon="17.888369">
        <time>1970-01-01T00:00:00+00:00</time>
        <ele>6.0</ele>
      </trkpt>
      <trkpt lat="59.503564" lon="17.888386">
        <time>1970-01-01T00:00:00+00:00</time>
        <ele>6.0</ele>
      </trkpt>
      <trkpt lat="59.503661" lon="17.888502">
        <time>1970-01-01T00:00:00+00:00</time>
        <ele>5.0</ele>
      </trkpt>
      <trkpt lat="59.503964" lon="17.887749">
        <time>1970-01-01T00:00:00+00:00</time>
        <ele>5.0</ele>
      </trkpt>
      <trkpt lat="59.504071" lon="17.887569">
        <time>1970-01-01T00:00:00+00:00</time>
        <ele>5.0</ele>
      </trkpt>
      <trkpt lat="59.5042" lon="17.887474">
        <time>1970-01-01T00:00:00+00:00</time>
        <ele>5.0</ele>
      </trkpt>
      <trkpt lat="59.504356" lon="17.88745">
        <time>1970-01-01T00:00:00+00:00</time>
        <ele>6.0</ele>
      </trkpt>
      <trkpt lat="59.50449" lon="17.887481">
        <time>1970-01-01T00:00:00+00:00</time>
        <ele>6.0</ele>
      </trkpt>
      <trkpt lat="59.504589" lon="17.887254">
        <time>1970-01-01T00:00:00+00:00</time>
        <ele>6.0</ele>
      </trkpt>
      <trkpt lat="59.5049" lon="17.88678">
        <time>1970-01-01T00:00:00+00:00</time>
        <ele>9.0</ele>
      </trkpt>
      <trkpt lat="59.504794" lon="17.886533">
        <time>1970-01-01T00:00:00+00:00</time>
        <ele>9.0</ele>
      </trkpt>
    </trkseg>
  </trk>
</gpx>
